sat.trackr.live / text

‹ back to catalog

STARLINK-35422

NORAD 66068 · 2025-235L

PAYLOAD ACTIVE UNKNOWN

§ Identity

Operator
Country
US
Launch date
2025-10-19
Launch site
AFETR
Launch vehicle
Mass (kg)
RCS (m²)

Purposes: comms

External: N2YO · Heavens-Above · Gunter

§ Orbital elements

Epoch: 2026-09-20T20:35:28.097376Z

Period
93.85 min
Inclination
53.1581°
Eccentricity
0.0000891
Mean motion
15.34399539 rev/d
Perigee alt
462.1 km
Apogee alt
463.3 km
Semi-major
6,840.8 km
B*
4.1488e-4
RAAN
55.8222°
Arg perigee
100.0490°
Mean anomaly
260.0613°
Rev number
5,281

§ Raw data

STARLINK-354221 66068U 25235L   26263.85796409  .00013666  00000+0  41488-3 0  99992 66068  53.1581  55.8222 0000891 100.0490 260.0613 15.34399539 52812

JSON: /api/v1/satellites/66068 · /tle

For live sub-satellite position, see the globe view (requires WebGL).

§ Visibility from observer

Set your observer location to see the next 7 days of passes ≥ 10°. The values pass through the URL so the page stays shareable.

No JS? Fill the form by hand. The geolocation button needs JavaScript.